Content
SEND FEEDBACK

Daily
Averages
Monthly
Summary
United States of America

PUT IN BAY, OHIO


Home > North America > United States > Ohio
Elevation: 171 meters     Latitude: 41 39N     Longitude: 082 48W

WEATHER
 
SELECT A DAY
Number of Records: 125,379;   Date Range: 12/10/00 - 12/19/14
 
SHARE

PRINT THIS DATA

[ ← Previous Day ]
WEATHER ALMANAC - 28 SEPTEMBER, 2013
[ Next Day → ]
[ °F ]   °C
Weather ElementAverageHighLow
Temperature17.2 °C22.8 °C (2:00 pm)10.6 °C (7:00 am)
Dewpoint13.1 °C15.8 °C (9:00 am)9.9 °C (7:00 am)
Humidity77.7 %97 % (8:00 am)43 % (2:00 pm)
Barometer1020.3 hPa1022.4 hPa (8:00 am)1016.9 hPa (11:00 pm)
Wind Speed6.3 km/h14.8 km/h (11:00 pm)
Weather ElementAverage
Wind DirectionESE (109.6 °)

Weather ElementTotal
Precipitation1.02 mm
Heating Degree Days1.7 (Base 18.3)
Growing Degree Days6.7 (Base 10)
Averaged from 27 records on 28 September, 2013
WEATHER CONDITIONS BREAKOUT
WIND DIRECTION BREAKOUT
WEATHER BY HOUR - 28 SEPTEMBER, 2013
[ °F ]   °C
Local TimeTemperatureDewpointHumidityBarometerVisibilityWind DirectionWind SpeedGust SpeedPrecipitationEventsConditions
1:00 AM12.9 °C11.8 °C93 %1021.7 hPaNNE (30°)3.7 km/h
2:00 AM12.2 °C11.1 °C91 %1021.7 hPaNE (50°)3.7 km/h
2:00 AM12.1 °C11.2 °C94 %1021.7 hPaNE (50°)3.7 km/h
3:00 AM12.3 °C11.5 °C95 %1021.7 hPaNE (40°)1.9 km/h
4:00 AM11.7 °C11 °C95 %1021.3 hPaNNE (30°)3.7 km/h
5:00 AM11.9 °C11.2 °C95 %1021.3 hPaNE (50°)5.6 km/h
6:00 AM11.5 °C10.9 °C96 %1021.7 hPaNE (50°)3.7 km/h
7:00 AM10.6 °C9.9 °C95 %1022 hPaEast (80°)1.9 km/h
8:00 AM13.3 °C12.8 °C95 %1022.4 hPaCalm
8:00 AM13.1 °C12.7 °C97 %1022.4 hPaCalm
9:00 AM16.2 °C15.8 °C97 %1022 hPaSE (140°)3.7 km/h0.76 mm
10:00 AM18.8 °C15 °C79 %1022 hPaSSE (150°)7.4 km/h
11:00 AM19.5 °C14.7 °C74 %1022.4 hPaSouth (170°)9.3 km/h
12:00 PM20.6 °C14.1 °C66 %1022 hPaSouth (190°)5.6 km/h
1:00 PM21.8 °C13.5 °C59 %1021.3 hPaSSE (160°)7.4 km/h
2:00 PM22.8 °C12.8 °C43 %1020.3 hPaSSE (150°)9.3 km/h
2:00 PM22.7 °C12.7 °C53 %1020.3 hPaSSE (150°)9.3 km/h
3:00 PM22.2 °C13.6 °C58 %1019.6 hPaSE (130°)9.3 km/h
4:00 PM22.2 °C12.7 °C55 %1019 hPaSE (130°)11.1 km/h
5:00 PM21.9 °C13.3 °C58 %1018.3 hPaSE (140°)11.1 km/h
6:00 PM21.1 °C13.9 °C63 %1018.3 hPaSE (130°)9.3 km/h
7:00 PM19.2 °C13.8 °C71 %1017.9 hPaSE (130°)5.6 km/h
8:00 PM18.3 °C14.4 °C71 %1017.6 hPaESE (120°)3.7 km/h
8:00 PM18.2 °C14.3 °C78 %1017.6 hPaESE (120°)3.7 km/h
9:00 PM18.4 °C14.8 °C79 %1017.6 hPaSE (130°)5.6 km/h0.25 mm
10:00 PM19.1 °C14.8 °C76 %1017.3 hPaSSE (160°)13 km/h
11:00 PM18.9 °C14 °C73 %1016.9 hPaSouth (170°)14.8 km/h
Hourly data recorded from CXHA, located 0 kilometers away from Put In Bay, Ohio







STORIES FROM OUR PARTNERS